Weather Roundup
Issued by NWS Springfield, MO

Home | Current Version | Previous Version | Text Only | Print | Product List | Glossary On
Versions: 1 2 3 4 5 6 7 8 9 10 11 12 13 14 15 16 17 18 19 20 21 22 23 24 25 26 27 28 29 30 31 32 33 34 35 36 37 38 39 40 41 42 43 44 45 46 47 48 49 50
000
NZUS99 KSGF 102207
HRRSGF

HOURLY WEATHER
NATIONAL WEATHER SERVICE SPRINGFIELD MO
500 PM CDT THU JUL 10 2014

......SGF CWA......

CITY           SKY/WX    TMP DP  RH WIND       PRES   REMARKS
SPRINGFIELD    PTSUNNY   80  64  58 SE15      30.06F
JOPLIN         PTSUNNY   80  67  64 SE14G22   30.03S
WEST PLAINS    CLOUDY    77  65  66 CALM      30.10F
ROLLA          PTSUNNY   78  62  57 E8        30.09S
OSAGE BEACH    PTSUNNY   82  64  54 E6        30.07F
BRANSON        CLOUDY    77  68  73 E6        30.09R

......SURROUNDING SGF CWA......

CITY           SKY/WX    TMP DP  RH WIND       PRES   REMARKS
CHANUTE        MOSUNNY   83  66  56 SE10G21   30.02F
PARSONS        SUNNY     82  65  56 S7        30.03S
COFFEYVILLE    SUNNY     81  67  62 S9        30.01F
EMPORIA        SUNNY     83  63  50 SE14G20   30.00F
GROVE OK       PTSUNNY   77  68  73 S7        30.05R
ROGERS AR      CLOUDY    72  66  81 SE10      30.08F
SILOAM SPRINGS CLOUDY    72  63  73 S3        30.08F
HARRISON AR    LGT RAIN  74  70  87 SW6       30.10R
NEAR YELLVILLE CLOUDY    81  66  61 CALM      30.06R

......KANSAS AND MISSOURI......

CITY           SKY/WX    TMP DP  RH WIND       PRES   REMARKS
KANSAS CTY INT MOSUNNY   83  65  54 SE14      30.03S
DOWNTOWN KC    MOSUNNY   85  65  51 SE15      30.02S
COLUMBIA       SUNNY     81  62  52 SE6       30.09F
SEDALIA        SUNNY     82  66  58 SE10      30.07F
ST JOSEPH      MOSUNNY   82  67  60 SE16      30.01F
ST LOUIS       MOSUNNY   84  54  35 NE6       30.10S
SPIRIT OF STL  MOSUNNY   83  57  41 S5        30.08S
KIRKSVILLE     SUNNY     80  59  48 SE12      30.10F
WICHITA        MOSUNNY   83  68  60 S15       29.97F
TOPEKA         SUNNY     86  64  47 SE15      30.00S
OLATHE         MOSUNNY   81  67  62 SE13G20   30.03S

......TENNESSEE......

CITY           SKY/WX    TMP DP  RH WIND       PRES   REMARKS
MEMPHIS        MOSUNNY   86  62  44 N8        30.05S
NASHVILLE      PTSUNNY   88  59  37 E7        30.05F

......ARKANSAS.......

CITY           SKY/WX    TMP DP  RH WIND       PRES   REMARKS
FAYETTEVILLE   CLOUDY    71  68  90 SE5       30.08F
FT SMITH       LGT RAIN  74  70  87 E10       30.05F
LITTLE ROCK    LGT RAIN  70  68  93 SW9       30.07F

......OKLAHOMA.......

CITY           SKY/WX    TMP DP  RH WIND       PRES   REMARKS
TULSA          LGT RAIN  73  70  90 SE13      29.99F
PONCA CITY     PTSUNNY   81  69  67 SE12      29.98F
MCALESTER      CLOUDY    81  72  74 N15       30.00S THUNDER
OKLAHOMA CITY  PTSUNNY   91  69  48 SE13      29.95F HX  96

......IOWA............

CITY           SKY/WX    TMP DP  RH WIND       PRES   REMARKS
DES MOINES     MOSUNNY   83  57  41 SE15      30.05S
QUAD CITIES    SUNNY     81  58  45 S7        30.10F

......ILLINOIS........

CITY           SKY/WX    TMP DP  RH WIND       PRES   REMARKS
QUINCY         MOSUNNY   80  54  40 SE8       30.10F
CHICAGO        MOSUNNY   76  52  43 E12       30.14F




USA.gov is the U.S. government's official web portal to all federal, state and local government web resources and services.